NOAA 16 DEB, 41412

Orbit data source: Space-Track

NOAA 16 DEB, 41412 is space debris in SSO originally from a launch on Thu, 21 Sep 2000 UTC launched from the Air Force Western Test Range (AFWTR). Debris objects in space refer to the collection of defunct objects orbiting the Earth. Examples of debris include non-operational satellites, rocket bodies, and fragments generated from explosions, collisions, or faulty payload assembly.

Loading next visibility...
Identifier
41412, 2000-055KR
Orbit
SSO
Country
Flag of USUS
Related business
Manufacturer
Unknown
Mission
Spacecraft
Bus & Motor
Unknown
Mass
Unknown
Launch date (UTC)
2000-09-21 (26 years ago)
Launch vehicle
Unknown
Launch site
Air Force Western Test Range (AFWTR)
Object type
Payload
Rocket body
Debris
Shape & HBR
Unknown shape, 0.1 m
Radar Cross Section
Medium (>0.1 m² and <1 m²)

Expand to show TLE details & history
Last TLE update: 1 day ago

TLE from 1 day ago
0 NOAA 16 DEB
1 41412U 00055KR  26236.01773781  .00003015  00000-0  12207-2 0  9998
2 41412  98.6183 256.9343 0022208 253.7552 106.1187 14.28372763541944
Epoch: 2026-08-24T00:25Z
TLE epoch observation values (Epoch: 2026-08-24T00:25:32.546Z)
Latitude
0.00005°
Longitude
-81.75679°
Altitude
804.561 km
Speed
7.449 km/s
True Right ascension
17h 07m 44s
True Declination
0° 00' 00"
Sunlit
Object was in daylight at epoch
Visualization orbit readout
Latitude
Unknown
Longitude
Unknown
Altitude
Unknown
Speed
Unknown
Apparent Right ascension
Unknown
Apparent Declination
Unknown
Sunlit
N/A
Visualization observer readout
Local Sidereal Time
00:15:53
Azimuth
Unknown
Elevation
Unknown
Doppler factor
Unknown
Orbital elements
Apogee altitude
810.247 km
Perigee altitude
778.39 km
Semi-major axis
7,172.455 km
Eccentricity
0.00222
Inclination
98.6183°
RAAN
256.9343°
Arg. of periapsis
253.7552°
True anomaly
106.36299°
Mean anomaly
106.1187°
Eccentric anomaly
106.24086°
Mean motion
3.57307 °/min
Orbital period
100.75 mins
BSTAR
0.0012207
Loading maneuver chart data...
Computing Atmospheric mass density...
Loading historical data...
Loading historical data...
Loading historical data...
Loading historical data...
Loading historical data...
Loading historical data...
Loading historical data...

Documentation

Showing up to 5 results
|